Location: Bieg
(49.3499°N, 10.3835°E)
Time: 22:37:58
(UTC+00:00)

Cosmos 968 Rocket - Pass Details

Date: 23 May 2024
Orbit: 738 x 769 km, 74.0° (Epoch: 14 June)

Event Time Altitude Azimuth Distance (km) Brightness Sun altitude
Exits shadow 02:02:13 14° 214° (SW) 1,956 4.9 -10.8°
Maximum altitude 02:06:31 67° 296° (WNW) 805 3.6 -10.3°
Drops below altitude 10° 02:11:38 10° 19° (NNE) 2,272 7.2 -9.8°
Sets 02:14:02 0° 22° (NNE) 3,205 8.3 -9.5°
